| time (UTC) | temp F | wind direction | speed knots | gust knots | rain 1hr in | rain 24hr in | rain mn in | humidity % | barometer mb |
| 20260831185320 | 68 | 82 | 1.7 | 1.7 | 0.52 | 1.16 | 1.16 | 93 | 1018.4 |
| 20260831184819 | 68 | 50 | 2.6 | 2.6 | 0.78 | 1.13 | 1.13 | 93 | 1018.8 |
| 20260831184315 | 68 | 35 | 0.9 | 0.9 | 1.13 | 1.06 | 1.06 | 93 | 1019.2 |
| 20260831183810 | 68 | 304 | 2.6 | 1.7 | 1.72 | 0.99 | 0.99 | 92 | 1019.2 |
| 20260831183310 | 68 | 275 | 0.9 | 0.9 | 2.46 | 0.88 | 0.88 | 92 | 1019.1 |
| 20260831182809 | 69 | 282 | 2.6 | 4.3 | 1.68 | 0.67 | 0.67 | 90 | 1019.3 |
| 20260831182305 | 70 | 257 | 2.6 | 4.3 | 0.31 | 0.44 | 0.44 | 85 | 1019.1 |
| 20260831181759 | 71 | 277 | 9.6 | 13.0 | 0.00 | 0.39 | 0.39 | 82 | 1019.1 |
| 20260831181254 | 71 | 282 | 7.8 | 9.6 | 0.00 | 0.39 | 0.39 | 82 | 1018.5 |
| 20260831180749 | 71 | 279 | 4.3 | 6.1 | 0.00 | 0.39 | 0.39 | 82 | 1017.6 |
| 20260831180244 | 71 | 282 | 7.8 | 11.3 | 0.00 | 0.39 | 0.39 | 81 | 1017.6 |
| 20260831175743 | 71 | 286 | 2.6 | 4.3 | 0.00 | 0.39 | 0.39 | 81 | 1018.1 |
| 20260831175240 | 72 | 284 | 4.3 | 6.1 | 0.00 | 0.39 | 0.39 | 80 | 1018.2 |
| 20260831174735 | 72 | 287 | 8.7 | 13.9 | 0.00 | 0.39 | 0.39 | 78 | 1017.9 |
| 20260831174231 | 73 | 321 | 6.1 | 8.7 | 0.00 | 0.39 | 0.39 | 76 | 1018.1 |
| 20260831173729 | 73 | 341 | 4.3 | 7.0 | 0.00 | 0.39 | 0.39 | 76 | 1018.1 |
| 20260831173224 | 73 | 266 | 6.1 | 7.0 | 0.00 | 0.39 | 0.39 | 76 | 1018.1 |
| 20260831172719 | 74 | 306 | 4.3 | 6.1 | 0.00 | 0.39 | 0.39 | 75 | 1017.8 |
| 20260831172214 | 74 | 276 | 3.5 | 4.3 | 0.00 | 0.39 | 0.39 | 75 | 1017.7 |
| 20260831171708 | 75 | 51 | 7.0 | 11.3 | 0.00 | 0.39 | 0.39 | 73 | 1017.9 |
| 20260831171206 | 75 | 310 | 3.5 | 4.3 | 0.00 | 0.39 | 0.39 | 74 | 1017.8 |
| 20260831170702 | 77 | 298 | 4.3 | 7.8 | 0.00 | 0.39 | 0.39 | 69 | 1017.7 |
| 20260831170158 | 78 | 303 | 2.6 | 2.6 | 0.00 | 0.39 | 0.39 | 64 | 1017.5 |
| 20260831165654 | 78 | 305 | 1.7 | 2.6 | 0.00 | 0.39 | 0.39 | 66 | 1017.6 |
| 20260831165150 | 77 | 316 | 1.7 | 2.6 | 0.00 | 0.39 | 0.39 | 69 | 1017.4 |
| 20260831164646 | 77 | 300 | 6.1 | 7.0 | 0.00 | 0.39 | 0.39 | 70 | 1017.1 |
| 20260831164142 | 77 | 285 | 4.3 | 5.2 | 0.00 | 0.39 | 0.39 | 70 | 1017.4 |
| 20260831163637 | 77 | 293 | 3.5 | 4.3 | 0.00 | 0.39 | 0.39 | 70 | 1017.0 |
| 20260831163133 | 77 | 288 | 2.6 | 2.6 | 0.00 | 0.39 | 0.39 | 70 | 1017.0 |
| 20260831162632 | 78 | 299 | 3.5 | 6.1 | 0.00 | 0.39 | 0.39 | 69 | 1016.9 |
| 20260831162130 | 80 | 293 | 4.3 | 6.1 | 0.00 | 0.39 | 0.39 | 67 | 1016.3 |
| 20260831161626 | 80 | 330 | 3.5 | 5.2 | 0.00 | 0.39 | 0.39 | 62 | 1016.3 |
| 20260831161122 | 81 | 253 | 1.7 | 1.7 | 0.00 | 0.39 | 0.39 | 61 | 1016.4 |
| 20260831160621 | 82 | 227 | 1.7 | 1.7 | 0.00 | 0.39 | 0.39 | 59 | 1016.2 |
| 20260831160117 | 81 | 106 | 0.9 | 1.7 | 0.00 | 0.39 | 0.39 | 56 | 1015.9 |
| 20260831155611 | 80 | 152 | 1.7 | 1.7 | 0.00 | 0.39 | 0.39 | 61 | 1016.0 |
| 20260831155106 | 80 | 156 | 1.7 | 2.6 | 0.00 | 0.39 | 0.39 | 61 | 1015.9 |
| 20260831154602 | 80 | 129 | 0.9 | 0.9 | 0.00 | 0.39 | 0.39 | 65 | 1015.9 |
| 20260831154102 | 80 | 150 | 1.7 | 1.7 | 0.00 | 0.39 | 0.39 | 66 | 1015.7 |
| 20260831153601 | 78 | 182 | 0.9 | 0.9 | 0.00 | 0.39 | 0.39 | 68 | 1015.9 |
| 20260831153058 | 78 | 197 | 4.3 | 5.2 | 0.00 | 0.39 | 0.39 | 69 | 1016.0 |
| 20260831152553 | 78 | 220 | 4.3 | 5.2 | 0.00 | 0.39 | 0.39 | 69 | 1016.1 |
| 20260831152049 | 77 | 228 | 4.3 | 5.2 | 0.00 | 0.39 | 0.39 | 72 | 1016.2 |
| 20260831151548 | 77 | 131 | 2.6 | 2.6 | 0.00 | 0.39 | 0.39 | 75 | 1016.1 |
| 20260831151043 | 76 | 151 | 1.7 | 2.6 | 0.00 | 0.39 | 0.39 | 76 | 1016.1 |
| 20260831150538 | 76 | 188 | 2.6 | 4.3 | 0.00 | 0.39 | 0.39 | 76 | 1016.1 |
| 20260831150034 | 76 | 153 | 0.9 | 1.7 | 0.00 | 0.39 | 0.39 | 77 | 1015.9 |
| 20260831145528 | 75 | 176 | 1.7 | 2.6 | 0.00 | 0.39 | 0.39 | 78 | 1015.7 |
| 20260831145025 | 75 | 181 | 2.6 | 4.3 | 0.00 | 0.39 | 0.39 | 78 | 1015.5 |
| 20260831144520 | 75 | 144 | 1.7 | 1.7 | 0.00 | 0.39 | 0.39 | 79 | 1015.6 |
| 20260831144015 | 74 | 143 | 2.6 | 4.3 | 0.00 | 0.39 | 0.39 | 80 | 1015.3 |
| 20260831143509 | 74 | 202 | 1.7 | 2.6 | 0.00 | 0.39 | 0.39 | 83 | 1015.6 |
| 20260831143005 | 73 | 134 | 1.7 | 1.7 | 0.00 | 0.39 | 0.39 | 85 | 1015.3 |
| 20260831142502 | 72 | 177 | 0.0 | 0.0 | 0.00 | 0.39 | 0.39 | 87 | 1015.2 |
| 20260831141956 | 72 | 147 | 0.0 | 0.0 | 0.00 | 0.39 | 0.39 | 88 | 1015.4 |
| 20260831141449 | 72 | 162 | 2.6 | 4.3 | 0.00 | 0.39 | 0.39 | 87 | 1015.3 |
| 20260831140944 | 72 | 141 | 2.6 | 2.6 | 0.00 | 0.39 | 0.39 | 86 | 1015.2 |
| 20260831140439 | 71 | 126 | 0.9 | 1.7 | 0.00 | 0.39 | 0.39 | 88 | 1015.2 |
| 20260831135938 | 71 | 113 | 0.9 | 0.9 | 0.00 | 0.39 | 0.39 | 89 | 1015.5 |
| 20260831135437 | 71 | 135 | 1.7 | 2.6 | 0.00 | 0.39 | 0.39 | 89 | 1015.3 |
| 20260831134932 | 71 | 100 | 1.7 | 1.7 | 0.00 | 0.39 | 0.39 | 89 | 1015.2 |
| 20260831134429 | 71 | 85 | 0.9 | 0.9 | 0.00 | 0.39 | 0.39 | 89 | 1015.2 |
| 20260831133928 | 70 | 86 | 1.7 | 1.7 | 0.00 | 0.39 | 0.39 | 89 | 1015.0 |
| 20260831133423 | 70 | 90 | 0.9 | 0.9 | 0.00 | 0.39 | 0.39 | 90 | 1015.3 |
| 20260831132918 | 70 | 158 | 0.9 | 0.9 | 0.00 | 0.39 | 0.39 | 91 | 1015.4 |
| 20260831132414 | 70 | 200 | 1.7 | 1.7 | 0.00 | 0.39 | 0.39 | 91 | 1015.4 |
| 20260831131913 | 70 | 112 | 0.0 | 0.0 | 0.00 | 0.39 | 0.39 | 90 | 1015.2 |
| 20260831131408 | 69 | 112 | 0.9 | 0.0 | 0.00 | 0.39 | 0.39 | 90 | 1015.3 |
| 20260831130904 | 69 | 112 | 0.9 | 0.9 | 0.00 | 0.39 | 0.39 | 90 | 1015.3 |
| 20260831130359 | 69 | 57 | 0.0 | 0.0 | 0.00 | 0.39 | 0.39 | 89 | 1015.2 |
| 20260831125858 | 69 | 3 | 4.3 | 5.2 | 0.07 | 0.39 | 0.39 | 89 | 1015.2 |
| 20260831125353 | 69 | 15 | 0.9 | 0.9 | 0.07 | 0.39 | 0.39 | 91 | 1015.6 |
| 20260831124848 | 69 | 356 | 3.5 | 4.3 | 0.05 | 0.38 | 0.38 | 92 | 1015.8 |
| 20260831124344 | 68 | 9 | 0.9 | 0.9 | 0.17 | 0.38 | 0.38 | 92 | 1016.0 |
| 20260831123839 | 68 | 265 | 2.6 | 1.7 | 0.66 | 0.37 | 0.37 | 91 | 1016.2 |
| 20260831123338 | 69 | 7 | 3.5 | 6.1 | 1.56 | 0.35 | 0.35 | 90 | 1015.9 |
| 20260831122833 | 69 | 12 | 5.2 | 8.7 | 1.13 | 0.26 | 0.26 | 89 | 1016.1 |
| 20260831122329 | 70 | 2 | 4.3 | 6.1 | 0.17 | 0.10 | 0.10 | 88 | 1016.2 |
| 20260831121828 | 70 | 306 | 3.5 | 5.2 | 0.07 | 0.07 | 0.07 | 87 | 1016.3 |
| 20260831121324 | 70 | 295 | 3.5 | 5.2 | 0.07 | 0.07 | 0.07 | 87 | 1015.8 |
| 20260831120820 | 70 | 294 | 3.5 | 5.2 | 0.00 | 0.06 | 0.06 | 87 | 1016.3 |
| 20260831120314 | 70 | 293 | 4.3 | 5.2 | 0.00 | 0.06 | 0.06 | 87 | 1015.8 |
| 20260831115809 | 71 | 283 | 2.6 | 4.3 | 0.00 | 0.06 | 0.06 | 87 | 1015.5 |
| 20260831115306 | 71 | 295 | 0.9 | 1.7 | 0.00 | 0.06 | 0.06 | 87 | 1015.9 |
| 20260831114805 | 71 | 16 | 4.3 | 6.1 | 0.19 | 0.06 | 0.06 | 85 | 1015.7 |
| 20260831114304 | 71 | 289 | 6.1 | 7.8 | 0.35 | 0.06 | 0.06 | 84 | 1015.6 |
| 20260831113800 | 74 | 303 | 2.6 | 2.6 | 0.17 | 0.03 | 0.03 | 79 | 1015.5 |
| 20260831113259 | 77 | 265 | 3.5 | 6.1 | 0.00 | 0.00 | 0.00 | 69 | 1015.2 |
| 20260831112754 | 78 | 284 | 4.3 | 7.0 | 0.00 | 0.00 | 0.00 | 62 | 1015.0 |
| 20260831112249 | 78 | 245 | 1.7 | 1.7 | 0.00 | 0.00 | 0.00 | 61 | 1014.6 |
| 20260831111744 | 79 | 265 | 2.6 | 2.6 | 0.00 | 0.00 | 0.00 | 61 | 1014.3 |
| 20260831111241 | 83 | 291 | 8.7 | 12.2 | 0.00 | 0.00 | 0.00 | 54 | 1014.2 |
| 20260831110737 | 82 | 135 | 0.9 | 0.9 | 0.00 | 0.00 | 0.00 | 48 | 1013.6 |
| 20260831110231 | 82 | 134 | 0.9 | 0.9 | 0.00 | 0.00 | 0.00 | 48 | 1013.3 |
| 20260831105730 | 82 | 128 | 0.0 | 0.0 | 0.00 | 0.00 | 0.00 | 49 | 1013.4 |
| 20260831105226 | 82 | 128 | 0.0 | 0.0 | 0.00 | 0.00 | 0.00 | 48 | 1013.2 |
| 20260831104720 | 82 | 128 | 0.0 | 0.0 | 0.00 | 0.00 | 0.00 | 48 | 1012.8 |
| 20260831104218 | 82 | 128 | 0.0 | 0.0 | 0.00 | 0.00 | 0.00 | 48 | 1012.8 |
| 20260831103717 | 82 | 126 | 0.0 | 0.0 | 0.00 | 0.00 | 0.00 | 48 | 1012.9 |
| 20260831103213 | 82 | 121 | 0.0 | 0.0 | 0.00 | 0.00 | 0.00 | 49 | 1012.7 |
| 20260831102712 | 82 | 82 | 0.0 | 0.0 | 0.00 | 0.00 | 0.00 | 50 | 1012.8 |
| 20260831102207 | 82 | 82 | 0.9 | 0.9 | 0.00 | 0.00 | 0.00 | 50 | 1012.9 |
| 20260831101703 | 82 | 82 | 0.0 | 0.0 | 0.00 | 0.00 | 0.00 | 52 | 1012.7 |
| 20260831101158 | 82 | 82 | 0.9 | 0.9 | 0.00 | 0.00 | 0.00 | 52 | 1013.0 |
| 20260831100654 | 81 | 81 | 0.0 | 0.0 | 0.00 | 0.00 | 0.00 | 52 | 1013.0 |
| 20260831100150 | 81 | 81 | 0.9 | 0.9 | 0.00 | 0.00 | 0.00 | 53 | 1012.9 |
| 20260831095648 | 82 | 81 | 0.9 | 0.9 | 0.00 | 0.00 | 0.00 | 53 | 1012.7 |
| 20260831095143 | 82 | 83 | 0.0 | 0.9 | 0.00 | 0.00 | 0.00 | 51 | 1012.6 |
| 20260831094638 | 82 | 61 | 0.0 | 0.0 | 0.00 | 0.00 | 0.00 | 51 | 1012.6 |
| 20260831094135 | 82 | 61 | 0.0 | 0.0 | 0.00 | 0.00 | 0.00 | 51 | 1012.7 |
| 20260831093630 | 82 | 61 | 0.0 | 0.0 | 0.00 | 0.00 | 0.00 | 51 | 1012.6 |
| 20260831093126 | 82 | 61 | 0.0 | 0.0 | 0.00 | 0.00 | 0.00 | 50 | 1012.8 |
| 20260831092622 | 82 | 47 | 0.0 | 0.0 | 0.00 | 0.00 | 0.00 | 50 | 1012.5 |
| 20260831092117 | 82 | 47 | 0.0 | 0.0 | 0.00 | 0.00 | 0.00 | 50 | 1012.4 |
| 20260831091616 | 82 | 46 | 0.0 | 0.0 | 0.00 | 0.00 | 0.00 | 51 | 1012.5 |
| 20260831091112 | 82 | 46 | 0.0 | 0.0 | 0.00 | 0.00 | 0.00 | 51 | 1012.5 |
| 20260831090608 | 82 | 46 | 0.0 | 0.0 | 0.00 | 0.00 | 0.00 | 50 | 1012.5 |
| 20260831090104 | 82 | 46 | 0.0 | 0.0 | 0.00 | 0.00 | 0.00 | 50 | 1012.8 |
| 20260831085559 | 82 | 327 | 0.0 | 0.0 | 0.00 | 0.00 | 0.00 | 50 | 1012.7 |
| 20260831085054 | 82 | 327 | 0.0 | 0.0 | 0.00 | 0.00 | 0.00 | 50 | 1012.7 |
| 20260831084550 | 82 | 327 | 0.0 | 0.0 | 0.00 | 0.00 | 0.00 | 50 | 1012.5 |
| 20260831084046 | 82 | 327 | 0.0 | 0.0 | 0.00 | 0.00 | 0.00 | 51 | 1012.7 |
| 20260831083542 | 82 | 326 | 0.0 | 0.0 | 0.00 | 0.00 | 0.00 | 50 | 1012.5 |
| 20260831083036 | 83 | 327 | 0.0 | 0.0 | 0.00 | 0.00 | 0.00 | 49 | 1012.7 |
| 20260831082530 | 84 | 327 | 0.0 | 0.0 | 0.00 | 0.00 | 0.00 | 48 | 1012.5 |
| 20260831082025 | 84 | 327 | 0.0 | 0.0 | 0.00 | 0.00 | 0.00 | 48 | 1012.7 |
| 20260831081521 | 84 | 327 | 0.0 | 0.0 | 0.00 | 0.00 | 0.00 | 47 | 1012.8 |
| 20260831081016 | 84 | 327 | 0.0 | 0.0 | 0.00 | 0.00 | 0.00 | 47 | 1012.9 |
| 20260831080510 | 84 | 327 | 0.0 | 0.0 | 0.00 | 0.00 | 0.00 | 46 | 1012.7 |
| 20260831080006 | 84 | 327 | 0.0 | 0.0 | 0.00 | 0.00 | 0.00 | 46 | 1012.9 |
| 20260831075501 | 84 | 326 | 0.0 | 0.0 | 0.00 | 0.00 | 0.00 | 47 | 1012.8 |
| 20260831074957 | 84 | 326 | 0.0 | 0.0 | 0.00 | 0.00 | 0.00 | 47 | 1013.0 |
| 20260831074456 | 84 | 326 | 0.0 | 0.0 | 0.00 | 0.00 | 0.00 | 46 | 1012.9 |
| 20260831073951 | 85 | 326 | 0.0 | 0.0 | 0.00 | 0.00 | 0.00 | 46 | 1012.9 |
| 20260831073450 | 85 | 326 | 0.0 | 0.0 | 0.00 | 0.00 | 0.00 | 45 | 1013.0 |
| 20260831072949 | 85 | 254 | 0.0 | 0.0 | 0.00 | 0.00 | 0.00 | 45 | 1012.8 |
| 20260831072446 | 86 | 254 | 0.0 | 0.0 | 0.00 | 0.00 | 0.00 | 44 | 1013.0 |
| 20260831071942 | 86 | 254 | 0.0 | 0.0 | 0.00 | 0.00 | 0.00 | 44 | 1013.1 |
| 20260831071441 | 86 | 253 | 0.0 | 0.0 | 0.00 | 0.00 | 0.00 | 44 | 1013.0 |
| 20260831070936 | 86 | 251 | 0.0 | 0.0 | 0.00 | 0.00 | 0.00 | 43 | 1013.0 |
| 20260831070435 | 86 | 236 | 0.9 | 0.9 | 0.00 | 0.00 | 0.00 | 43 | 1013.2 |
| 20260831065935 | 87 | 229 | 0.9 | 0.9 | 0.00 | 0.00 | 0.00 | 43 | 1013.2 |
| 20260831065433 | 87 | 254 | 0.0 | 0.0 | 0.00 | 0.00 | 0.00 | 44 | 1013.0 |
| 20260831064928 | 87 | 281 | 0.9 | 0.9 | 0.00 | 0.00 | 0.00 | 43 | 1013.2 |
| 20260831064423 | 87 | 291 | 0.0 | 0.0 | 0.00 | 0.00 | 0.00 | 43 | 1013.2 |
| 20260831063919 | 87 | 291 | 0.9 | 0.0 | 0.00 | 0.00 | 0.00 | 43 | 1013.0 |
| 20260831063414 | 87 | 291 | 0.0 | 0.0 | 0.00 | 0.00 | 0.00 | 44 | 1013.1 |
| 20260831062908 | 87 | 291 | 0.0 | 0.0 | 0.00 | 0.00 | 0.00 | 43 | 1013.1 |
| 20260831062403 | 87 | 292 | 0.0 | 0.0 | 0.00 | 0.00 | 0.00 | 43 | 1013.0 |
| 20260831061902 | 87 | 292 | 0.0 | 0.0 | 0.00 | 0.00 | 0.00 | 42 | 1013.3 |
| 20260831061401 | 87 | 289 | 0.0 | 0.0 | 0.00 | 0.00 | 0.00 | 42 | 1013.2 |
| 20260831060857 | 87 | 288 | 0.0 | 0.0 | 0.00 | 0.00 | 0.00 | 42 | 1013.3 |
| 20260831060352 | 87 | 288 | 0.0 | 0.9 | 0.00 | 0.00 | 0.00 | 42 | 1013.1 |
| 20260831055851 | 87 | 282 | 0.9 | 0.9 | 0.00 | 0.00 | 0.00 | 42 | 1013.4 |
| 20260831055346 | 87 | 282 | 0.9 | 0.9 | 0.00 | 0.00 | 0.00 | 42 | 1013.1 |
| 20260831054842 | 87 | 283 | 0.0 | 0.0 | 0.00 | 0.00 | 0.00 | 41 | 1013.2 |
| 20260831054337 | 87 | 281 | 0.9 | 1.7 | 0.00 | 0.00 | 0.00 | 41 | 1013.1 |
| 20260831053836 | 87 | 235 | 0.0 | 0.0 | 0.00 | 0.00 | 0.00 | 41 | 1013.0 |
| 20260831053334 | 88 | 267 | 0.9 | 0.9 | 0.00 | 0.00 | 0.00 | 40 | 1013.2 |
| 20260831052829 | 88 | 290 | 0.9 | 0.9 | 0.00 | 0.00 | 0.00 | 40 | 1013.1 |
| 20260831052329 | 88 | 285 | 0.0 | 0.0 | 0.00 | 0.00 | 0.00 | 40 | 1012.9 |
| 20260831051827 | 88 | 271 | 1.7 | 1.7 | 0.00 | 0.00 | 0.00 | 40 | 1012.8 |
| 20260831051325 | 88 | 282 | 1.7 | 1.7 | 0.00 | 0.00 | 0.00 | 40 | 1012.9 |
| 20260831050821 | 88 | 297 | 0.9 | 1.7 | 0.00 | 0.00 | 0.00 | 40 | 1012.7 |
| 20260831050319 | 88 | 10 | 0.9 | 0.9 | 0.00 | 0.00 | 0.00 | 40 | 1012.8 |
| 20260831045814 | 88 | 345 | 0.9 | 0.9 | 0.00 | 0.00 | 0.00 | 40 | 1012.7 |
| 20260831045308 | 88 | 291 | 0.9 | 1.7 | 0.00 | 0.00 | 0.00 | 39 | 1012.8 |
| 20260831044803 | 89 | 318 | 0.0 | 0.9 | 0.00 | 0.00 | 0.00 | 39 | 1012.7 |
| 20260831044258 | 89 | 301 | 1.7 | 1.7 | 0.00 | 0.00 | 0.00 | 39 | 1012.7 |
| 20260831043754 | 89 | 289 | 2.6 | 4.3 | 0.00 | 0.00 | 0.00 | 39 | 1012.8 |
| 20260831043254 | 89 | 345 | 0.9 | 1.7 | 0.00 | 0.00 | 0.00 | 39 | 1012.7 |
| 20260831042749 | 89 | 351 | 2.6 | 4.3 | 0.00 | 0.00 | 0.00 | 39 | 1012.7 |
| 20260831042243 | 89 | 231 | 0.9 | 1.7 | 0.00 | 0.00 | 0.00 | 39 | 1012.9 |
| 20260831041739 | 89 | 306 | 1.7 | 2.6 | 0.00 | 0.00 | 0.00 | 39 | 1012.8 |
| 20260831041238 | 89 | 292 | 3.5 | 5.2 | 0.00 | 0.00 | 0.00 | 39 | 1012.7 |
| 20260831040733 | 89 | 299 | 0.9 | 2.6 | 0.00 | 0.00 | 0.00 | 39 | 1012.5 |
| 20260831040232 | 89 | 18 | 0.9 | 0.9 | 0.00 | 0.00 | 0.00 | 38 | 1012.6 |
| 20260831035731 | 89 | 4 | 2.6 | 5.2 | 0.00 | 0.00 | 0.00 | 38 | 1012.2 |
| 20260831035230 | 89 | 322 | 0.9 | 0.9 | 0.00 | 0.00 | 0.00 | 38 | 1012.2 |
| 20260831034729 | 89 | 275 | 0.9 | 1.7 | 0.00 | 0.00 | 0.00 | 38 | 1012.4 |
| 20260831034225 | 89 | 359 | 3.5 | 5.2 | 0.00 | 0.00 | 0.00 | 38 | 1012.4 |
| 20260831033720 | 89 | 286 | 2.6 | 5.2 | 0.00 | 0.00 | 0.00 | 37 | 1011.9 |
| 20260831033220 | 90 | 302 | 3.5 | 5.2 | 0.00 | 0.00 | 0.00 | 37 | 1012.2 |
| 20260831032716 | 90 | 330 | 2.6 | 2.6 | 0.00 | 0.00 | 0.00 | 37 | 1012.1 |
| 20260831032211 | 90 | 285 | 3.5 | 5.2 | 0.00 | 0.00 | 0.00 | 37 | 1011.9 |
| 20260831031710 | 90 | 317 | 1.7 | 1.7 | 0.00 | 0.00 | 0.00 | 37 | 1011.7 |
| 20260831031205 | 91 | 279 | 0.9 | 1.7 | 0.00 | 0.00 | 0.00 | 37 | 1011.8 |
| 20260831030704 | 91 | 303 | 3.5 | 5.2 | 0.00 | 0.00 | 0.00 | 37 | 1011.6 |
| 20260831030203 | 91 | 323 | 2.6 | 2.6 | 0.00 | 0.00 | 0.00 | 36 | 1011.5 |
| 20260831025701 | 92 | 311 | 5.2 | 6.1 | 0.00 | 0.00 | 0.00 | 35 | 1011.3 |
| 20260831025156 | 93 | 13 | 5.2 | 6.1 | 0.00 | 0.00 | 0.00 | 35 | 1011.3 |
| 20260831024653 | 94 | 305 | 3.5 | 5.2 | 0.00 | 0.00 | 0.00 | 34 | 1010.7 |
| 20260831024151 | 94 | 20 | 2.6 | 4.3 | 0.00 | 0.00 | 0.00 | 33 | 1010.7 |
| 20260831023650 | 94 | 307 | 2.6 | 4.3 | 0.00 | 0.00 | 0.00 | 33 | 1010.5 |
| 20260831023149 | 95 | 283 | 1.7 | 1.7 | 0.00 | 0.00 | 0.00 | 32 | 1010.3 |
| 20260831022645 | 95 | 296 | 1.7 | 0.9 | 0.00 | 0.00 | 0.00 | 32 | 1010.1 |
| 20260831022140 | 95 | 311 | 1.7 | 4.3 | 0.00 | 0.00 | 0.00 | 31 | 1010.3 |
| 20260831021639 | 95 | 262 | 1.7 | 1.7 | 0.00 | 0.00 | 0.00 | 31 | 1010.1 |
| 20260831021134 | 95 | 282 | 0.9 | 1.7 | 0.00 | 0.00 | 0.00 | 31 | 1010.2 |
| 20260831020630 | 95 | 283 | 0.9 | 1.7 | 0.00 | 0.00 | 0.00 | 31 | 1010.1 |
| 20260831020125 | 95 | 303 | 1.7 | 1.7 | 0.00 | 0.00 | 0.00 | 31 | 1010.1 |
| 20260831015621 | 95 | 283 | 0.9 | 0.9 | 0.00 | 0.00 | 0.00 | 30 | 1009.9 |
| 20260831015120 | 95 | 318 | 0.9 | 1.7 | 0.00 | 0.00 | 0.00 | 30 | 1010.0 |
| 20260831014615 | 95 | 299 | 2.6 | 2.6 | 0.00 | 0.00 | 0.00 | 30 | 1010.0 |
| 20260831014110 | 95 | 289 | 2.6 | 1.7 | 0.00 | 0.00 | 0.00 | 29 | 1009.7 |
| 20260831013607 | 96 | 289 | 1.7 | 2.6 | 0.00 | 0.00 | 0.00 | 29 | 1009.8 |
| 20260831013106 | 96 | 311 | 2.6 | 4.3 | 0.00 | 0.00 | 0.00 | 29 | 1009.9 |
| 20260831012606 | 96 | 300 | 1.7 | 2.6 | 0.00 | 0.00 | 0.00 | 29 | 1009.9 |
| 20260831012101 | 96 | 311 | 1.7 | 2.6 | 0.00 | 0.00 | 0.00 | 29 | 1009.8 |
| 20260831011600 | 96 | 304 | 1.7 | 1.7 | 0.00 | 0.00 | 0.00 | 29 | 1009.7 |
| 20260831011056 | 96 | 308 | 0.9 | 0.9 | 0.00 | 0.00 | 0.00 | 29 | 1009.8 |
| 20260831010551 | 96 | 259 | 0.9 | 1.7 | 0.00 | 0.00 | 0.00 | 29 | 1009.8 |
| 20260831010048 | 96 | 304 | 1.7 | 1.7 | 0.00 | 0.00 | 0.00 | 29 | 1009.8 |
| 20260831005542 | 97 | 309 | 0.9 | 1.7 | 0.00 | 0.00 | 0.00 | 29 | 1009.6 |
| 20260831005042 | 97 | 300 | 0.0 | 0.0 | 0.00 | 0.00 | 0.00 | 29 | 1009.7 |
| 20260831004538 | 98 | 318 | 2.6 | 4.3 | 0.00 | 0.00 | 0.00 | 28 | 1009.8 |
| 20260831004033 | 98 | 299 | 3.5 | 4.3 | 0.00 | 0.00 | 0.00 | 28 | 1009.5 |
| 20260831003530 | 99 | 302 | 4.3 | 6.1 | 0.00 | 0.00 | 0.00 | 27 | 1009.7 |
| 20260831003025 | 100 | 285 | 0.9 | 0.9 | 0.00 | 0.00 | 0.00 | 27 | 1009.8 |
| 20260831002524 | 100 | 284 | 4.3 | 6.1 | 0.00 | 0.00 | 0.00 | 27 | 1009.7 |
| 20260831002019 | 101 | 238 | 4.3 | 6.1 | 0.00 | 0.00 | 0.00 | 26 | 1009.7 |
| 20260831001515 | 101 | 241 | 2.6 | 2.6 | 0.00 | 0.00 | 0.00 | 26 | 1009.9 |
| 20260831001011 | 101 | 296 | 0.9 | 1.7 | 0.00 | 0.00 | 0.00 | 26 | 1009.7 |
| 20260831000507 | 101 | 301 | 0.9 | 0.9 | 0.00 | 0.00 | 0.00 | 26 | 1009.9 |
| 20260831000006 | 101 | 294 | 1.7 | 1.7 | 0.00 | 0.00 | 0.00 | 26 | 1009.7 |
| 20260830235501 | 101 | 320 | 4.3 | 5.2 | 0.00 | 0.00 | 0.00 | 26 | 1009.8 |
| 20260830234955 | 102 | 289 | 3.5 | 4.3 | 0.00 | 0.00 | 0.00 | 26 | 1009.7 |
| 20260830234450 | 101 | 12 | 0.9 | 0.9 | 0.00 | 0.00 | 0.00 | 26 | 1009.9 |
| 20260830233946 | 102 | 304 | 2.6 | 4.3 | 0.00 | 0.00 | 0.00 | 26 | 1009.7 |
| 20260830233441 | 102 | 339 | 0.9 | 0.9 | 0.00 | 0.00 | 0.00 | 26 | 1009.7 |
| 20260830232937 | 102 | 284 | 2.6 | 2.6 | 0.00 | 0.00 | 0.00 | 26 | 1009.9 |
| 20260830232433 | 102 | 280 | 2.6 | 1.7 | 0.00 | 0.00 | 0.00 | 26 | 1009.9 |
| 20260830231929 | 102 | 355 | 1.7 | 1.7 | 0.00 | 0.00 | 0.00 | 26 | 1010.0 |
| 20260830231424 | 102 | 314 | 3.5 | 4.3 | 0.00 | 0.00 | 0.00 | 26 | 1010.0 |
| 20260830230923 | 102 | 265 | 1.7 | 2.6 | 0.00 | 0.00 | 0.00 | 26 | 1010.1 |
| 20260830230419 | 101 | 281 | 2.6 | 2.6 | 0.00 | 0.00 | 0.00 | 26 | 1010.2 |
| 20260830225918 | 101 | 297 | 1.7 | 1.7 | 0.00 | 0.00 | 0.00 | 27 | 1010.3 |
| 20260830225414 | 103 | 301 | 2.6 | 1.7 | 0.00 | 0.00 | 0.00 | 25 | 1010.3 |
| 20260830224908 | 102 | 245 | 0.0 | 0.0 | 0.00 | 0.00 | 0.00 | 25 | 1010.6 |
| 20260830224407 | 102 | 277 | 1.7 | 0.9 | 0.00 | 0.00 | 0.00 | 25 | 1010.4 |
| 20260830223904 | 102 | 281 | 1.7 | 1.7 | 0.00 | 0.00 | 0.00 | 27 | 1010.7 |
| 20260830223400 | 102 | 333 | 2.6 | 4.3 | 0.00 | 0.00 | 0.00 | 26 | 1010.7 |
| 20260830222859 | 102 | 287 | 5.2 | 6.1 | 0.00 | 0.00 | 0.00 | 25 | 1011.1 |
| 20260830222355 | 102 | 303 | 2.6 | 4.3 | 0.00 | 0.00 | 0.00 | 26 | 1010.7 |
| 20260830221850 | 101 | 279 | 0.0 | 0.0 | 0.00 | 0.00 | 0.00 | 26 | 1011.1 |
| 20260830221347 | 101 | 7 | 2.6 | 2.6 | 0.00 | 0.00 | 0.00 | 26 | 1010.9 |
| 20260830220842 | 101 | 300 | 2.6 | 2.6 | 0.00 | 0.00 | 0.00 | 27 | 1011.4 |
| 20260830220342 | 101 | 271 | 2.6 | 2.6 | 0.00 | 0.00 | 0.00 | 27 | 1011.4 |
| 20260830215839 | 100 | 296 | 4.3 | 5.2 | 0.00 | 0.00 | 0.00 | 27 | 1011.4 |
| 20260830215339 | 99 | 270 | 1.7 | 1.7 | 0.00 | 0.00 | 0.00 | 28 | 1011.3 |
| 20260830214834 | 99 | 206 | 0.9 | 0.9 | 0.00 | 0.00 | 0.00 | 28 | 1011.5 |
| 20260830214330 | 100 | 292 | 2.6 | 4.3 | 0.00 | 0.00 | 0.00 | 28 | 1011.8 |
| 20260830213829 | 101 | 313 | 1.7 | 1.7 | 0.00 | 0.00 | 0.00 | 27 | 1011.6 |
| 20260830213324 | 101 | 274 | 3.5 | 4.3 | 0.00 | 0.00 | 0.00 | 27 | 1011.7 |
| 20260830212820 | 102 | 190 | 0.0 | 0.0 | 0.00 | 0.00 | 0.00 | 26 | 1011.8 |
| 20260830212316 | 102 | 287 | 2.6 | 2.6 | 0.00 | 0.00 | 0.00 | 26 | 1011.9 |
| 20260830211814 | 102 | 276 | 3.5 | 4.3 | 0.00 | 0.00 | 0.00 | 26 | 1011.8 |
| 20260830211309 | 102 | 354 | 2.6 | 2.6 | 0.00 | 0.00 | 0.00 | 26 | 1011.9 |
| 20260830210805 | 102 | 231 | 1.7 | 1.7 | 0.00 | 0.00 | 0.00 | 26 | 1012.0 |
| 20260830210304 | 101 | 307 | 0.9 | 0.9 | 0.00 | 0.00 | 0.00 | 26 | 1012.4 |
| 20260830205802 | 100 | 317 | 1.7 | 2.6 | 0.00 | 0.00 | 0.00 | 26 | 1012.4 |
| 20260830205305 | 100 | 140 | 0.9 | 1.7 | 0.00 | 0.00 | 0.00 | 26 | 1012.5 |
| 20260830204757 | 101 | 208 | 0.9 | 0.9 | 0.00 | 0.00 | 0.00 | 26 | 1012.7 |
| 20260830204256 | 101 | 282 | 2.6 | 2.6 | 0.00 | 0.00 | 0.00 | 26 | 1012.8 |
| 20260830203752 | 100 | 46 | 1.7 | 1.7 | 0.00 | 0.00 | 0.00 | 26 | 1012.9 |
| 20260830203248 | 100 | 61 | 0.9 | 0.9 | 0.00 | 0.00 | 0.00 | 26 | 1013.1 |
| 20260830202747 | 100 | 170 | 0.9 | 0.9 | 0.00 | 0.00 | 0.00 | 27 | 1013.0 |
| 20260830202243 | 100 | 266 | 1.7 | 1.7 | 0.00 | 0.00 | 0.00 | 27 | 1013.4 |
| 20260830201742 | 100 | 255 | 1.7 | 1.7 | 0.00 | 0.00 | 0.00 | 27 | 1013.3 |
| 20260830201237 | 100 | 352 | 2.6 | 4.3 | 0.00 | 0.00 | 0.00 | 28 | 1013.5 |
| 20260830200733 | 100 | 58 | 1.7 | 1.7 | 0.00 | 0.00 | 0.00 | 27 | 1013.4 |
| 20260830200232 | 99 | 289 | 2.6 | 2.6 | 0.00 | 0.00 | 0.00 | 28 | 1013.5 |
| 20260830195727 | 100 | 277 | 2.6 | 2.6 | 0.00 | 0.00 | 0.00 | 28 | 1013.5 |
| 20260830195226 | 99 | 243 | 2.6 | 1.7 | 0.00 | 0.00 | 0.00 | 29 | 1013.9 |
| 20260830194724 | 98 | 39 | 1.7 | 1.7 | 0.00 | 0.00 | 0.00 | 29 | 1013.6 |
| 20260830194219 | 98 | 303 | 1.7 | 2.6 | 0.00 | 0.00 | 0.00 | 29 | 1013.5 |
| 20260830193714 | 98 | 235 | 3.5 | 4.3 | 0.00 | 0.00 | 0.00 | 30 | 1014.1 |
| 20260830193208 | 99 | 308 | 1.7 | 1.7 | 0.00 | 0.00 | 0.00 | 30 | 1013.9 |
| 20260830192704 | 98 | 261 | 0.9 | 0.9 | 0.00 | 0.00 | 0.00 | 30 | 1014.1 |
| 20260830192159 | 98 | 138 | 2.6 | 4.3 | 0.00 | 0.00 | 0.00 | 29 | 1014.1 |
| 20260830191655 | 97 | 6 | 2.6 | 2.6 | 0.00 | 0.00 | 0.00 | 31 | 1014.2 |
| 20260830191149 | 96 | 148 | 1.7 | 1.7 | 0.00 | 0.00 | 0.00 | 31 | 1014.4 |
| 20260830190644 | 96 | 293 | 2.6 | 2.6 | 0.00 | 0.00 | 0.00 | 32 | 1014.3 |
| 20260830190139 | 96 | 251 | 6.1 | 6.1 | 0.00 | 0.00 | 0.00 | 31 | 1014.5 |